Location: Cuzcurrita-R�o Tir�n
(42.5415°N, 2.9642°W)
Time: 01:27:43
(UTC+00:00)

RESURS DK-1 - Pass Details

Date: 17 January 2021
Orbit: 557 x 560 km, 69.9° (Epoch: 08 March)

Event Time Altitude Azimuth Distance (km) Brightness Sun altitude
Rises 18:42:09 0° 237° (WSW) 2,732 7.2 -17.3°
Reaches altitude 10° 18:44:42 10° 251° (WSW) 1,841 6.3 -17.8°
Maximum altitude 18:48:02 23° 306° (NW) 1,197 4.5 -18.4°
Drops below altitude 10° 18:51:23 10° 0° (N) 1,850 4.9 -19.0°
Enters shadow 18:52:03 - 5° (N) 2,070 5.1 -19.1°
